TimeMST,TemperatureF,Dew PointF,Humidity,Sea Level PressureIn,VisibilityMPH,Wind Direction,Wind SpeedMPH,Gust SpeedMPH,PrecipitationIn,Events,Conditions,WindDirDegrees,DateUTC
12:15 AM,59.2,51.1,74,30.00,10.0,SSE,6.9,-,N/A,,Overcast,150,2013-11-20 07:15:00
12:35 AM,59.4,51.6,76,30.00,10.0,SSE,9.2,-,N/A,,Overcast,160,2013-11-20 07:35:00
12:55 AM,59.2,51.4,75,29.99,10.0,SSE,9.2,-,N/A,,Overcast,150,2013-11-20 07:55:00
1:15 AM,59.0,51.6,76,29.98,10.0,SSE,9.2,16.1,N/A,,Overcast,160,2013-11-20 08:15:00
1:35 AM,58.5,52.2,80,29.99,10.0,SSE,10.4,17.3,N/A,,Overcast,160,2013-11-20 08:35:00
1:55 AM,57.7,51.8,81,29.98,10.0,South,10.4,18.4,N/A,,Scattered Clouds,170,2013-11-20 08:55:00
2:15 AM,56.8,50.0,78,29.98,10.0,South,6.9,-,N/A,,Scattered Clouds,170,2013-11-20 09:15:00
2:35 AM,57.2,48.7,73,29.99,10.0,SSE,5.8,-,N/A,,Mostly Cloudy,150,2013-11-20 09:35:00
2:55 AM,57.6,48.6,72,29.99,10.0,SE,3.5,-,N/A,,Overcast,140,2013-11-20 09:55:00
3:15 AM,57.7,48.0,70,29.98,10.0,SE,4.6,-,N/A,,Overcast,140,2013-11-20 10:15:00
3:35 AM,57.7,48.4,71,29.98,10.0,SSE,4.6,-,N/A,,Overcast,150,2013-11-20 10:35:00
3:55 AM,58.1,49.8,74,29.98,10.0,SE,6.9,-,N/A,,Overcast,130,2013-11-20 10:55:00
4:15 AM,57.7,50.4,76,29.98,10.0,SE,4.6,-,N/A,,Overcast,140,2013-11-20 11:15:00
4:35 AM,58.1,50.7,76,29.98,10.0,SE,4.6,-,N/A,,Overcast,140,2013-11-20 11:35:00
4:55 AM,58.1,50.9,77,29.98,10.0,SSE,4.6,-,N/A,,Overcast,150,2013-11-20 11:55:00
5:15 AM,58.1,50.5,76,29.98,10.0,SE,3.5,-,N/A,,Overcast,140,2013-11-20 12:15:00
5:35 AM,57.9,50.5,76,29.99,10.0,South,3.5,-,N/A,,Overcast,170,2013-11-20 12:35:00
5:55 AM,58.1,50.9,77,29.98,10.0,SE,5.8,-,N/A,,Overcast,140,2013-11-20 12:55:00
6:15 AM,58.1,50.9,77,29.99,10.0,SSE,5.8,-,N/A,,Overcast,150,2013-11-20 13:15:00
6:35 AM,58.1,51.3,78,29.98,10.0,SE,5.8,-,N/A,,Overcast,140,2013-11-20 13:35:00
6:55 AM,58.5,51.8,79,29.99,10.0,SSE,5.8,-,N/A,,Overcast,150,2013-11-20 13:55:00
7:15 AM,59.0,52.2,78,29.98,10.0,SSE,8.1,-,N/A,,Overcast,150,2013-11-20 14:15:00
7:35 AM,59.2,52.3,78,29.98,10.0,SE,6.9,-,N/A,,Overcast,140,2013-11-20 14:35:00
7:55 AM,60.1,52.9,77,29.99,10.0,SSE,8.1,-,N/A,,Overcast,150,2013-11-20 14:55:00
8:15 AM,60.3,53.1,77,30.00,10.0,SSE,6.9,-,N/A,,Overcast,160,2013-11-20 15:15:00
8:35 AM,61.2,53.4,76,30.00,10.0,SSE,5.8,-,N/A,,Overcast,150,2013-11-20 15:35:00
8:55 AM,61.7,53.4,74,30.00,10.0,SE,4.6,-,N/A,,Overcast,140,2013-11-20 15:55:00
9:15 AM,61.3,53.8,76,30.00,10.0,SSE,3.5,-,N/A,,Overcast,150,2013-11-20 16:15:00
9:35 AM,61.9,54.5,77,29.99,10.0,South,6.9,-,N/A,,Overcast,170,2013-11-20 16:35:00
9:55 AM,63.7,55.4,74,29.99,10.0,South,9.2,-,N/A,,Overcast,170,2013-11-20 16:55:00
10:15 AM,64.0,55.6,74,29.99,10.0,SSE,4.6,-,N/A,,Overcast,150,2013-11-20 17:15:00
10:35 AM,66.0,56.3,71,29.98,10.0,South,5.8,-,N/A,,Overcast,170,2013-11-20 17:35:00
10:55 AM,67.1,56.5,69,29.97,10.0,South,4.6,-,N/A,,Overcast,190,2013-11-20 17:55:00
11:15 AM,67.5,57.0,69,29.96,10.0,SSE,5.8,-,N/A,,Overcast,150,2013-11-20 18:15:00
11:35 AM,68.5,57.4,67,29.95,10.0,SSE,5.8,-,N/A,,Overcast,150,2013-11-20 18:35:00
11:55 AM,68.9,57.7,68,29.93,10.0,South,4.6,-,N/A,,Overcast,170,2013-11-20 18:55:00
12:15 PM,68.9,58.3,69,29.92,10.0,South,4.6,-,N/A,,Overcast,170,2013-11-20 19:15:00
12:35 PM,69.8,58.6,68,29.92,10.0,South,6.9,-,N/A,,Overcast,170,2013-11-20 19:35:00
12:55 PM,70.5,59.0,67,29.91,10.0,South,9.2,-,N/A,,Overcast,190,2013-11-20 19:55:00
1:15 PM,71.4,59.0,65,29.90,10.0,SSE,5.8,-,N/A,,Overcast,160,2013-11-20 20:15:00
1:35 PM,72.1,59.2,64,29.90,10.0,SSE,4.6,-,N/A,,Overcast,160,2013-11-20 20:35:00
1:55 PM,73.0,59.9,63,29.88,10.0,SSE,5.8,-,N/A,,Overcast,150,2013-11-20 20:55:00
2:15 PM,72.5,59.9,64,29.88,10.0,South,4.6,-,N/A,,Overcast,180,2013-11-20 21:15:00
2:35 PM,74.5,60.4,61,29.88,10.0,South,9.2,-,N/A,,Mostly Cloudy,170,2013-11-20 21:35:00
2:55 PM,73.4,60.4,64,29.88,10.0,South,5.8,-,N/A,,Mostly Cloudy,170,2013-11-20 21:55:00
3:15 PM,73.2,60.3,64,29.89,10.0,SSE,6.9,-,N/A,,Overcast,150,2013-11-20 22:15:00
3:35 PM,71.2,59.9,67,29.90,10.0,SSE,5.8,-,N/A,,Overcast,150,2013-11-20 22:35:00
3:55 PM,70.7,59.5,68,29.90,10.0,SSE,8.1,-,N/A,,Overcast,150,2013-11-20 22:55:00
4:15 PM,69.8,59.0,68,29.91,10.0,SE,5.8,-,N/A,,Overcast,140,2013-11-20 23:15:00
4:35 PM,69.1,58.6,69,29.91,10.0,SE,5.8,-,N/A,,Overcast,140,2013-11-20 23:35:00
4:55 PM,68.7,58.8,71,29.92,10.0,SE,4.6,-,N/A,,Overcast,130,2013-11-20 23:55:00
5:15 PM,68.5,59.2,72,29.92,10.0,SSE,5.8,-,N/A,,Overcast,150,2013-11-21 00:15:00
5:35 PM,68.4,59.4,73,29.92,10.0,SE,3.5,-,N/A,,Overcast,140,2013-11-21 00:35:00
5:55 PM,68.2,59.9,75,29.92,10.0,ESE,5.8,-,N/A,,Overcast,120,2013-11-21 00:55:00
6:15 PM,67.5,59.5,76,29.92,10.0,SE,5.8,-,N/A,,Overcast,130,2013-11-21 01:15:00
6:35 PM,67.6,60.4,78,29.93,10.0,SE,6.9,-,N/A,,Overcast,140,2013-11-21 01:35:00
6:55 PM,67.3,60.8,80,29.93,10.0,SE,6.9,-,N/A,,Overcast,130,2013-11-21 01:55:00
7:15 PM,67.1,61.2,81,29.93,10.0,SE,6.9,-,N/A,,Overcast,130,2013-11-21 02:15:00
7:35 PM,66.6,61.2,83,29.93,10.0,SE,8.1,17.3,N/A,,Overcast,140,2013-11-21 02:35:00
7:55 PM,66.2,61.3,84,29.94,10.0,SE,8.1,-,N/A,,Overcast,140,2013-11-21 02:55:00
8:15 PM,66.0,61.7,86,29.94,10.0,SE,6.9,-,N/A,,Overcast,140,2013-11-21 03:15:00
8:35 PM,65.8,62.1,88,29.94,10.0,SE,5.8,-,N/A,,Overcast,130,2013-11-21 03:35:00
8:55 PM,65.7,62.6,90,29.95,10.0,SE,4.6,-,N/A,,Overcast,140,2013-11-21 03:55:00
9:15 PM,65.7,63.1,92,29.95,7.0,SE,4.6,-,N/A,Rain,Rain,140,2013-11-21 04:15:00
9:35 PM,65.5,65.5,100,29.95,3.0,Calm,Calm,-,N/A,,Drizzle,0,2013-11-21 04:35:00
9:55 PM,65.3,65.3,100,29.95,2.5,SE,3.5,-,N/A,,Drizzle,140,2013-11-21 04:55:00
10:15 PM,65.3,65.3,100,29.94,3.0,SE,3.5,-,N/A,,Drizzle,130,2013-11-21 05:15:00
10:35 PM,65.3,65.3,100,29.94,3.0,SE,4.6,-,N/A,,Light Drizzle,140,2013-11-21 05:35:00
10:55 PM,65.3,65.3,100,29.95,3.0,SE,3.5,-,N/A,,Overcast,130,2013-11-21 05:55:00
11:15 PM,65.5,65.5,100,29.95,3.0,SE,4.6,-,N/A,,Overcast,130,2013-11-21 06:15:00
11:35 PM,65.5,65.5,100,29.95,1.8,SE,3.5,-,N/A,,Light Drizzle,130,2013-11-21 06:35:00
11:55 PM,65.5,65.5,100,29.94,1.0,SE,4.6,-,N/A,,Overcast,140,2013-11-21 06:55:00